793  
ASUS41 KAKQ 150615  
RWRAKQ  
 
REGIONAL WEATHER ROUNDUP  
NATIONAL WEATHER SERVICE WAKEFIELD VA  
200 AM EDT SUN SEP 15 2019  
 
NOTE: "FAIR" INDICATES FEW OR NO CLOUDS BELOW 12,000 FEET WITH NO  
SIGNIFICANT WEATHER AND/OR S TO VISIBILITY
. * = DENOTES  
STATION MAY NOT REPORT PRECIPITATION (E.G., RAIN,SNOW,ETC.),
 
THUNDER OR FOG.  
 
VAZ042-051-052>054-056-150700-  
NORTHERN VIRGINIA  
 
CITY SKY/WX TMP DP RH WIND PRES REMARKS
 
WASH NATIONAL CLOUDY 76 69 79 S7 30.17R  
DULLES CLOUDY 68 66 93 CALM 30.17R  
FORT BELVOIR MOCLDY 70 68 94 CALM 30.16R  
QUANTICO CLOUDY 74 69 85 SW3 30.17R  
FREDERICKSBRG* MOCLDY 72 70 96 CALM 30.16S  
STAFFORD* MOCLDY 70 70 100 CALM 30.20S  
WARRENTON MOCLDY 68 65 89 CALM 30.17R FOG  
CULPEPER* MOCLDY 69 67 94 CALM 30.18R  
MANASSAS* CLOUDY 69 67 93 CALM 30.17R  
LEESBURG* FAIR 66 66 100 S5 30.18R  
WINCHESTER FAIR 64 63 94 CALM 30.17S FOG  
FRONT ROYAL* MOCLDY 68 68 100 CALM 30.18R  
LURAY* FAIR 66 66 100 CALM 30.19R  

 
 
VAZ048-049-060>072-079>083-150700-  
CENTRAL AND SOUTH CENTRAL VIRGINIA  
 
CITY SKY/WX TMP DP RH WIND PRES REMARKS
 
RICHMOND CLOUDY 73 71 93 S3 30.17S  
CHESTERFIELD* FAIR 72 69 90 S6 30.18S  
PETERSBURG* CLOUDY 71 68 90 CALM 30.18F  
HANOVER FAIR 72 68 87 CALM 30.18S  
TAPPAHANNOCK* FAIR 73 73 100 CALM 30.18S  
QUINTON* CLOUDY 72 72 100 CALM 30.18S  
CHARLOTTSVILLE FAIR 70 67 90 CALM 30.17S  
GORDONSVILLE* FAIR 67 67 100 CALM 30.16S  
ORANGE* FAIR 66 66 100 CALM 30.17S  
LOUISA* FAIR 68 68 99 SE5 30.21F  
BUMPASS* FAIR 71 69 95 S5 30.17S  
FARMVILLE* FAIR 69 69 99 CALM 30.16F  
CREWE* FAIR N/A N/A N/A CALM 30.18S  
FORT PICKETT* FAIR 70 70 100 S9 30.18S  
CHASE CITY* FAIR 68 67 95 CALM 30.18R  
CLARKSVILLE* FAIR 68 68 100 CALM 30.18R  
SOUTH HILL* CLOUDY 71 71 100 CALM 30.24R  
LAWRENCEVILLE* FAIR 71 70 97 CALM 30.19S  
EMPORIA* MOCLDY 71 71 99 CALM 30.19S  

 
 
VAZ088>098-150700-  
SOUTHEAST VIRGINIA  
 
CITY SKY/WX TMP DP RH WIND PRES REMARKS
 
NORFOLK FAIR 74 71 91 CALM 30.17S  
VIRGINIA BEACH CLOUDY 70 69 97 CALM 30.16F  
NORFOLK NAVAL CLOUDY 71 71 100 CALM 30.18F  
WEST POINT* CLOUDY 75 73 93 SE3 30.19S  
SALUDA* CLOUDY 74 74 100 S3 30.17F  
NEWPORT NEWS MOCLDY 73 69 87 N3 30.17F  
LANGLEY AFB CLEAR 74 74 99 CALM 30.17S  
FORT EUSTIS CLOUDY 76 68 78 S3 30.15S  
WILLIAMSBURG* FAIR 77 73 88 CALM 30.19S  
HR EXEC AP* FAIR 66 65 96 CALM 30.18S FOG  
FRANKLIN* FAIR 69 68 98 CALM 30.18S  
US460-WAKEFLD CLOUDY 72 69 90 CALM 30.18R  

 
 
VAZ020-022-025-037-045-150700-  
WEST CENTRAL AND SOUTHWEST VIRGINIA  
 
CITY SKY/WX TMP DP RH WIND PRES REMARKS
 
STAUNTON* FAIR 65 64 97 CALM 30.22S  
WAYNESBORO* FAIR 67 66 99 CALM 30.22R  
HOT SPRINGS VA NOT AVBL  
LYNCHBURG FAIR 68 67 96 CALM 30.19S FOG  
DANVILLE FAIR 71 69 93 CALM 30.18S  
SOUTH BOSTON* FAIR 69 67 95 CALM 30.18R  
MARTINSVILLE MOCLDY 66 66 100 CALM 30.23R FOG  
ROANOKE MOCLDY 69 68 96 W3 30.23R FOG  
BLACKSBURG FAIR 65 65 100 CALM 30.29R  
DUBLIN* FOG 63 63 100 W3 30.27R VSB 1  
MARION* FAIR 63 63 100 CALM 30.31R  
HILLSVILLE* FOG 67 65 96 CALM 30.28R VSB 1/4  
RICHLANDS* FAIR 64 63 96 CALM 30.30R  
WISE* FAIR 63 52 67 CALM 30.31R  
ABINGDON* FAIR 64 64 100 CALM 30.26R  

 
 
MDZ021>025-VAZ099-100-150700-  
SOUTHERN MARYLAND AND THE DELMARVA PENINSULA  
 
CITY SKY/WX TMP DP RH WIND PRES REMARKS
 
PATUXENT RIVER MOCLDY 74 71 91 S5 30.16S  
BAY BRIDGE APT CLOUDY 75 72 88 S5 30.16S  
LEONARDTOWN CLOUDY 72 70 94 CALM 30.18S  
DOVER CLOUDY 74 69 85 S8 30.16S  
GEORGETOWN CLOUDY 72 70 93 S5 30.18S  
EASTON CLOUDY 76 73 88 S5 30.20S  
CAMBRIDGE CLOUDY 73 72 94 CALM 30.17S  
SALISBURY CLOUDY 72 69 90 CALM 30.18S  
TANGIER CLOUDY 77 73 88 S7G16 30.17F  
OCEAN CITY CLOUDY 74 71 91 S3 30.19S  
WALLOPS ISLAND FAIR 73 71 93 CALM 30.19S  
ACCOMACK* FAIR 72 71 98 S3 30.18S  

 
 
NCZ012>017-030>032-150700-  
NORTH CENTRAL AND EASTERN NORTH CAROLINA  
 
CITY SKY/WX TMP DP RH WIND PRES REMARKS
 
ROANOKE RAPIDS NOT AVBL  
RALEIGH FAIR 70 68 93 CALM 30.18R  
ELIZABETH CITY CLOUDY 76 72 87 NE6 30.16F  
AHOSKIE* FAIR 68 68 100 CALM 30.17S  
EDENTON* CLOUDY 73 73 98 CALM 30.17S  
CURRITUCK* NOT AVBL  
KILL DEVIL HLS CLOUDY 75 73 94 CALM 30.14F  
MANTEO NOT AVBL  
CAPE HATTERAS FAIR N/A N/A N/A SE3 30.14S  
TARBORO* N/A 69 68 99 CALM 30.16F  
GOLDSBORO NOT AVBL  
WASHINGTON NOT AVBL  
GREENVILLE NOT AVBL  
NEW BERN FAIR 72 72 100 CALM 30.15R  
WILMINGTON FAIR 74 72 93 CALM 30.13S  

 
 
VAZ048-150700-  
ELSEWHERE  
 
CITY SKY/WX TMP DP RH WIND PRES REMARKS
 
HARRISBURG PA MOCLDY 66 64 93 NW5 30.16S FOG  
BALTIMORE CLOUDY 75 69 81 S3 30.15S  
ANNAPOLIS CLOUDY 79 69 71 S5 30.15S  
ANDREWS AFB MOCLDY 73 69 87 S6 30.16R  
PHILADELPHIA CLOUDY 72 69 90 SW6 30.17S  
GREENSBORO MOCLDY 72 70 93 CALM 30.19S  
ROCKY MOUNT FAIR 70 69 97 CALM 30.17S  

 
 
VAZ100-150700-  
MARINE  
 
STATION/POSITION TIME TEMP WIND PRES WAVE SWELL
 
AIR SEA DIR/SP/G HT/PER HT/PER  
(UTC) (F) (DEG/KT/KT) (MB) (FT/S) (FT/S)  
CAPE MAY NJ 0518 73 74 160/ 3/ 5 1021.6  
LEWES DE 0524 74 74 180/ 5/ 7 1022.0  
15NM E FENWICK I 0550 73 72 170/ 8/ 10 1022.0S 4/ 9 3/ 9  
OCEAN-CITY-INLET 0530 75 200/ 6/ 8 1022.9S  
44089 WALLOPS IS 0600 76 N/A 4/11 2/11  
WACHAPREAGUE VA 0524 75 77 190/ 4/ 6 1021.8  
THOMAS POINT MD 0600 75 76 170/ 13/ 14 1022.1R  
GOOSES REEF MD 0554 76 180/ 12/ 14 1022.1S  
COVE POINT MD 0524 75 190/ 10/ 12 1022.1  
SOLOMONS ISLAND 0524 75 77 190/ 6/ 8 1021.2  
BISHOPS HEAD MD 0518 76 78 180/ 10/ 12 1022.1  
PINEY POINT MD 0524 200/ 10/ 13 N/A  
POTOMAC MD 0600 76 77 180/ 12/ 14 1023.9 1  
CAMBRIDGE MD 0518 75 77 160/ 5/ 6 1021.5  
LEWISETTA VA 0530 76 200/ 7/ 9 1021.6S  
RAPPAHANNOCK LGT 0524 160/ 6/ 8 1022.8  
STINGRAY PT 0530 77 78 190/ 10/ 10 1025.3  
YORK RVR RNG VA 0524 77 210/ 5/ 7 1022.5  
YORKTOWN VA 0524 75 79 190/ 1/ 3 1021.5  
JAMESTOWN VA 0600 76 81 1022.2  
DOMINION TERM VA 0530 140/ 4/ 6 1022.0S  
KIPTOPEKE VA 0530 78 110/ 2/ 3 N/A  
CAPE HENRY VA 0524 75 130/ 5/ 6 1021.9  
WILLOUBY STN VA 0518 75 140/ 4/ 5 1021.3  
S CRANEY ISL VA 0524 76 150/ 4/ 6 1021.6  
CAPE HENRY BUOY 0600 76 N/A 4/10 2/11  
1ST LANDING BUOY 0550 76 150/ 6/ 6 1021.6R  
64NM E OF VA BCH 0550 75 74 60/ 4/ 4 1022.4R 5/ 9 5/ 9  
DUCK PIER NC 0524 76 120/ 7/ 8 1021.2  
44100 DUCK FRF 0600 77 N/A 5/10 2/11  
44056 DUCK FRF 0600 78 N/A 4/10 2/11  
OREGON INLET NC 0518 75 78 90/ 8/ 12 1020.9  
HATTERAS NC 0530 79 140/ 5/ 6 1020.6F  
DIAMOND SHLS NC 0550 120/ 8/ 10 1020.2F  
CAPE LOOKOUT NC 0500 79 100/ 8/ 9 1020.4F  

 
 
 
CLICK HERE TO GO TO PREVIOUS BULLETINS.

The Nexlab VA Page
The Nexlab NC Page
The Nexlab MD Page Main Text Page